RYR218 LJLJ-LQSA

Flight info

Callsign RYR218
Flight time 0h 41m
Altitude 29000
Route LUPIX DCT BOSNA
Aircraft B38M/M-SDE1FGHILORVWXY/HB1

Departure

Time 2026-04-23 07:58
Airport Ljubljana Jože Pučnik Airport (LJLJ)

Arrival

Time 2026-04-23 08:39
Airport Sarajevo International Airport (LQSA)
Time Latitude Longitude Altitude Speed Heading
2026-04-23 07:05 46.23026 14.45418 1259 ft 0 kts 40°
2026-04-23 07:45 46.23021 14.45411 1267 ft 4 kts 40°
2026-04-23 07:45 46.23001 14.45384 1259 ft 4 kts 51°
2026-04-23 07:45 46.22990 14.45352 1262 ft 4 kts 89°
2026-04-23 07:46 46.22993 14.45333 1264 ft 1 kts 127°
2026-04-23 07:50 46.22993 14.45334 1264 ft 1 kts 127°
2026-04-23 07:51 46.22979 14.45361 1259 ft 6 kts 127°
2026-04-23 07:51 46.22931 14.45400 1264 ft 10 kts 190°
2026-04-23 07:51 46.22875 14.45354 1258 ft 10 kts 216°
2026-04-23 07:51 46.22808 14.45368 1257 ft 12 kts 131°
2026-04-23 07:52 46.22753 14.45476 1265 ft 12 kts 127°
2026-04-23 07:52 46.22695 14.45588 1258 ft 10 kts 128°
2026-04-23 07:52 46.22651 14.45673 1252 ft 13 kts 127°
2026-04-23 07:52 46.22591 14.45789 1247 ft 16 kts 127°
2026-04-23 07:53 46.22526 14.45917 1244 ft 12 kts 127°
2026-04-23 07:53 46.22486 14.45999 1252 ft 12 kts 125°
2026-04-23 07:53 46.22432 14.46109 1247 ft 15 kts 125°
2026-04-23 07:53 46.22376 14.46215 1241 ft 14 kts 127°
2026-04-23 07:54 46.22314 14.46341 1232 ft 17 kts 126°
2026-04-23 07:54 46.22235 14.46494 1230 ft 21 kts 126°
2026-04-23 07:54 46.22156 14.46647 1226 ft 12 kts 127°
2026-04-23 07:54 46.22115 14.46730 1224 ft 12 kts 127°
2026-04-23 07:55 46.22059 14.46836 1222 ft 15 kts 126°
2026-04-23 07:55 46.21991 14.46971 1219 ft 18 kts 125°
2026-04-23 07:55 46.21907 14.47131 1215 ft 21 kts 125°
2026-04-23 07:55 46.21814 14.47318 1211 ft 25 kts 125°
2026-04-23 07:56 46.21706 14.47529 1206 ft 27 kts 125°
2026-04-23 07:56 46.21613 14.47598 1203 ft 11 kts 210°
2026-04-23 07:56 46.21546 14.47522 1202 ft 13 kts 219°
2026-04-23 07:56 46.21526 14.47416 1203 ft 0 kts 302°
2026-04-23 07:57 46.21569 14.47327 1206 ft 41 kts 306°
2026-04-23 07:58 46.21912 14.46660 1223 ft 122 kts 307°
2026-04-23 07:58 46.22554 14.45407 1252 ft 186 kts 306°
2026-04-23 07:58 46.23232 14.43917 2429 ft 144 kts 300°
2026-04-23 07:58 46.23782 14.42550 3160 ft 174 kts 298°
2026-04-23 07:59 46.24024 14.40763 3733 ft 196 kts 260°
2026-04-23 07:59 46.23319 14.38967 4283 ft 224 kts 220°
2026-04-23 07:59 46.21832 14.38220 5057 ft 236 kts 175°
2026-04-23 07:59 46.20293 14.39163 5730 ft 253 kts 132°
2026-04-23 08:00 46.19535 14.41423 6511 ft 255 kts 89°
2026-04-23 08:00 46.19766 14.43961 7370 ft 259 kts 75°
2026-04-23 08:00 46.20049 14.46601 8155 ft 271 kts 79°
2026-04-23 08:00 46.19917 14.49327 9272 ft 277 kts 101°
2026-04-23 08:01 46.19096 14.51881 10299 ft 288 kts 118°
2026-04-23 08:01 46.17914 14.54303 10964 ft 303 kts 120°
2026-04-23 08:01 46.16647 14.56849 11484 ft 321 kts 120°
2026-04-23 08:01 46.15301 14.59513 12038 ft 335 kts 121°
2026-04-23 08:02 46.13899 14.62257 12745 ft 343 kts 121°
2026-04-23 08:02 46.12476 14.65029 13676 ft 345 kts 121°
2026-04-23 08:02 46.11034 14.67829 14393 ft 350 kts 121°
2026-04-23 08:02 46.09579 14.70653 15097 ft 353 kts 121°
2026-04-23 08:03 46.08108 14.73502 15801 ft 356 kts 121°
2026-04-23 08:03 46.06656 14.76364 16479 ft 359 kts 119°
2026-04-23 08:03 46.05211 14.79315 17180 ft 363 kts 119°
2026-04-23 08:03 46.03725 14.82331 17876 ft 366 kts 120°
2026-04-23 08:04 46.02260 14.85297 18538 ft 370 kts 120°
2026-04-23 08:04 46.00757 14.88335 19130 ft 373 kts 120°
2026-04-23 08:04 45.99249 14.91382 19745 ft 374 kts 120°
2026-04-23 08:04 45.97733 14.94441 20354 ft 376 kts 120°
2026-04-23 08:05 45.96208 14.97514 20968 ft 378 kts 120°
2026-04-23 08:05 45.94674 15.00602 21546 ft 380 kts 120°
2026-04-23 08:05 45.93134 15.03698 22126 ft 382 kts 120°
2026-04-23 08:05 45.91584 15.06812 22687 ft 384 kts 120°
2026-04-23 08:06 45.90027 15.09935 23235 ft 387 kts 120°
2026-04-23 08:06 45.88453 15.13091 23795 ft 389 kts 120°
2026-04-23 08:06 45.86870 15.16259 24258 ft 391 kts 120°
2026-04-23 08:06 45.85283 15.19434 24662 ft 393 kts 120°
2026-04-23 08:07 45.83680 15.22636 25080 ft 396 kts 120°
2026-04-23 08:07 45.82070 15.25846 25522 ft 397 kts 120°
2026-04-23 08:07 45.80452 15.29073 25950 ft 399 kts 120°
2026-04-23 08:07 45.78847 15.32269 26360 ft 402 kts 120°
2026-04-23 08:08 45.77182 15.35506 26759 ft 405 kts 122°
2026-04-23 08:08 45.75425 15.38673 27169 ft 407 kts 122°
2026-04-23 08:08 45.73663 15.41866 27588 ft 409 kts 122°
2026-04-23 08:08 45.71900 15.45072 27988 ft 411 kts 122°
2026-04-23 08:09 45.70133 15.48285 28381 ft 412 kts 122°
2026-04-23 08:09 45.68353 15.51520 28867 ft 411 kts 122°
2026-04-23 08:09 45.66588 15.54727 29259 ft 412 kts 122°
2026-04-23 08:10 45.63055 15.61129 29255 ft 408 kts 122°
2026-04-23 08:10 45.57791 15.70645 29240 ft 409 kts 122°
2026-04-23 08:11 45.54258 15.77013 29244 ft 408 kts 122°
2026-04-23 08:11 45.51324 15.82291 29242 ft 408 kts 122°
2026-04-23 08:12 45.47793 15.88630 29241 ft 408 kts 122°
2026-04-23 08:12 45.44258 15.94962 29234 ft 408 kts 122°
2026-04-23 08:13 45.40723 16.01280 29235 ft 408 kts 122°
2026-04-23 08:13 45.37186 16.07587 29231 ft 407 kts 122°
2026-04-23 08:14 45.33651 16.13876 29222 ft 407 kts 122°
2026-04-23 08:14 45.30110 16.20162 29223 ft 407 kts 122°
2026-04-23 08:15 45.26567 16.26438 29228 ft 407 kts 122°
2026-04-23 08:15 45.23018 16.32711 29238 ft 407 kts 122°
2026-04-23 08:16 45.19490 16.38935 29233 ft 407 kts 122°
2026-04-23 08:16 45.15940 16.45185 29237 ft 407 kts 122°
2026-04-23 08:17 45.12308 16.51360 29231 ft 408 kts 123°
2026-04-23 08:17 45.08666 16.57512 29229 ft 407 kts 123°
2026-04-23 08:18 45.05028 16.63651 29239 ft 407 kts 123°
2026-04-23 08:18 45.01387 16.69783 29238 ft 407 kts 123°
2026-04-23 08:19 44.97753 16.75888 29214 ft 400 kts 123°
2026-04-23 08:19 44.95992 16.78841 29056 ft 387 kts 123°
2026-04-23 08:19 44.94270 16.81728 28663 ft 381 kts 123°
2026-04-23 08:20 44.92574 16.84566 28228 ft 376 kts 123°
2026-04-23 08:20 44.90895 16.87375 27809 ft 371 kts 123°
2026-04-23 08:20 44.89240 16.90140 27390 ft 367 kts 123°
2026-04-23 08:20 44.87604 16.92872 26975 ft 362 kts 123°
2026-04-23 08:21 44.85985 16.95571 26572 ft 358 kts 123°
2026-04-23 08:21 44.84402 16.98208 26175 ft 356 kts 123°
2026-04-23 08:21 44.82777 17.00915 25757 ft 358 kts 123°
2026-04-23 08:21 44.81163 17.03598 25349 ft 359 kts 123°
2026-04-23 08:22 44.79569 17.06247 24938 ft 359 kts 123°
2026-04-23 08:22 44.77959 17.08918 24550 ft 357 kts 123°
2026-04-23 08:22 44.76344 17.11595 24148 ft 356 kts 123°
2026-04-23 08:22 44.74744 17.14247 23735 ft 355 kts 123°
2026-04-23 08:23 44.73145 17.16892 23248 ft 354 kts 123°
2026-04-23 08:23 44.71558 17.19517 22824 ft 350 kts 123°
2026-04-23 08:23 44.69990 17.22108 22446 ft 345 kts 123°
2026-04-23 08:23 44.68437 17.24670 22057 ft 342 kts 123°
2026-04-23 08:24 44.66898 17.27210 21673 ft 343 kts 123°
2026-04-23 08:24 44.65344 17.29770 21279 ft 344 kts 124°
2026-04-23 08:24 44.63789 17.32329 20889 ft 344 kts 124°
2026-04-23 08:24 44.62240 17.34876 20507 ft 343 kts 124°
2026-04-23 08:25 44.60689 17.37424 20111 ft 343 kts 124°
2026-04-23 08:25 44.59134 17.39977 19713 ft 342 kts 124°
2026-04-23 08:25 44.57615 17.42471 19338 ft 341 kts 124°
2026-04-23 08:25 44.56075 17.44993 18956 ft 340 kts 124°
2026-04-23 08:26 44.54535 17.47513 18561 ft 338 kts 124°
2026-04-23 08:26 44.53008 17.50012 18124 ft 336 kts 124°
2026-04-23 08:26 44.51495 17.52484 17713 ft 332 kts 125°
2026-04-23 08:26 44.50002 17.54924 17328 ft 328 kts 125°
2026-04-23 08:27 44.48541 17.57307 16956 ft 323 kts 125°
2026-04-23 08:27 44.47087 17.59680 16588 ft 319 kts 124°
2026-04-23 08:27 44.45642 17.62032 16211 ft 319 kts 125°
2026-04-23 08:27 44.44188 17.64400 15826 ft 321 kts 125°
2026-04-23 08:28 44.42731 17.66769 15457 ft 322 kts 125°
2026-04-23 08:28 44.41270 17.69143 15080 ft 322 kts 125°
2026-04-23 08:28 44.39811 17.71514 14711 ft 322 kts 125°
2026-04-23 08:28 44.38351 17.73884 14316 ft 321 kts 125°
2026-04-23 08:29 44.36771 17.76104 13823 ft 327 kts 140°
2026-04-23 08:29 44.34764 17.77646 13369 ft 327 kts 148°
2026-04-23 08:29 44.32763 17.79078 13042 ft 321 kts 148°
2026-04-23 08:29 44.30790 17.80497 12670 ft 318 kts 148°
2026-04-23 08:30 44.28826 17.81911 12264 ft 315 kts 148°
2026-04-23 08:30 44.26909 17.83291 11877 ft 312 kts 148°
2026-04-23 08:30 44.24988 17.84674 11510 ft 309 kts 148°
2026-04-23 08:30 44.23083 17.86044 11143 ft 308 kts 148°
2026-04-23 08:31 44.21171 17.87415 10747 ft 311 kts 149°
2026-04-23 08:31 44.19271 17.88778 10570 ft 302 kts 149°
2026-04-23 08:31 44.17434 17.90096 10455 ft 292 kts 148°
2026-04-23 08:31 44.15652 17.91374 10231 ft 286 kts 148°
2026-04-23 08:32 44.13882 17.92644 9831 ft 287 kts 149°
2026-04-23 08:32 44.12104 17.93918 9433 ft 287 kts 149°
2026-04-23 08:32 44.10320 17.95193 9038 ft 289 kts 149°
2026-04-23 08:32 44.08528 17.96473 8530 ft 291 kts 149°
2026-04-23 08:33 44.06724 17.97765 8157 ft 290 kts 149°
2026-04-23 08:33 44.04934 17.99041 7773 ft 289 kts 150°
2026-04-23 08:33 44.03148 18.00316 7443 ft 286 kts 149°
2026-04-23 08:33 44.01342 18.01492 7078 ft 288 kts 158°
2026-04-23 08:34 43.99427 18.02359 6782 ft 288 kts 159°
2026-04-23 08:34 43.97578 18.03221 6625 ft 280 kts 159°
2026-04-23 08:34 43.95754 18.04086 6477 ft 273 kts 158°
2026-04-23 08:34 43.93979 18.04959 6292 ft 267 kts 153°
2026-04-23 08:35 43.92532 18.06468 5984 ft 257 kts 125°
2026-04-23 08:35 43.91602 18.08546 5669 ft 249 kts 113°
2026-04-23 08:35 43.90832 18.10657 5353 ft 243 kts 112°
2026-04-23 08:35 43.90071 18.12724 5007 ft 239 kts 114°
2026-04-23 08:36 43.89323 18.14745 4665 ft 232 kts 113°
2026-04-23 08:36 43.88588 18.16726 4350 ft 231 kts 112°
2026-04-23 08:36 43.87856 18.18685 3977 ft 223 kts 115°
2026-04-23 08:36 43.87162 18.20536 3398 ft 219 kts 116°
2026-04-23 08:37 43.86498 18.22287 3299 ft 192 kts 116°
2026-04-23 08:37 43.85876 18.23843 3062 ft 174 kts 115°
2026-04-23 08:37 43.85353 18.25321 2718 ft 165 kts 111°
2026-04-23 08:37 43.84894 18.26674 2508 ft 151 kts 112°
2026-04-23 08:38 43.84406 18.27961 2321 ft 150 kts 118°
2026-04-23 08:38 43.83924 18.29218 2155 ft 148 kts 112°
2026-04-23 08:38 43.83470 18.30459 1964 ft 143 kts 113°
2026-04-23 08:38 43.83012 18.31675 1710 ft 139 kts 112°
2026-04-23 08:39 43.82616 18.32743 1681 ft 112 kts 112°
2026-04-23 08:39 43.82332 18.33497 1691 ft 60 kts 117°
2026-04-23 08:39 43.82164 18.33941 1700 ft 51 kts 116°
2026-04-23 08:39 43.82013 18.34346 1706 ft 32 kts 119°
2026-04-23 08:40 43.81951 18.34561 1713 ft 12 kts 69°
2026-04-23 08:40 43.82006 18.34618 1715 ft 10 kts 16°
2026-04-23 08:40 43.82077 18.34598 1714 ft 12 kts 330°
2026-04-23 08:40 43.82133 18.34496 1710 ft 16 kts 299°
2026-04-23 08:41 43.82189 18.34345 1706 ft 19 kts 296°
2026-04-23 08:41 43.82256 18.34171 1706 ft 22 kts 295°
2026-04-23 08:41 43.82315 18.34012 1700 ft 14 kts 298°
2026-04-23 08:41 43.82364 18.33882 1698 ft 17 kts 295°
2026-04-23 08:42 43.82387 18.33817 1696 ft 8 kts 296°
2026-04-23 08:42 43.82418 18.33732 1694 ft 9 kts 297°
2026-04-23 08:42 43.82427 18.33706 1692 ft 1 kts 297°
2026-04-23 08:42 43.82437 18.33679 1692 ft 5 kts 297°
2026-04-23 08:43 43.82455 18.33647 1692 ft 1 kts 340°
2026-04-23 08:43 43.82470 18.33650 1691 ft 3 kts 22°
2026-04-23 08:43 43.82487 18.33669 1697 ft 0 kts 32°
2026-04-23 08:43 43.82491 18.33673 1695 ft 0 kts 31°
2026-04-23 08:44 43.82494 18.33675 1694 ft 1 kts 32°
2026-04-23 08:44 43.82503 18.33684 1693 ft 0 kts 36°
2026-04-23 08:44 43.82504 18.33684 1693 ft 0 kts 27°
2026-04-23 08:44 43.82508 18.33687 1692 ft 1 kts 23°
2026-04-23 08:45 43.82510 18.33688 1692 ft 0 kts 23°
2026-04-23 08:45 43.82526 18.33684 1691 ft 0 kts 304°